STARLINK-1730 (46563 NORAD) Tracking and Keplerian Element Data

This shows tracking and keplerian element data for the satellite.

Feedback or suggestion? Click here.




ElementValue
Catalog46563
NameSTARLINK-1730
Epoch Orbit178
Epoch Day338.66668981
Epoch Year2020
RAAN156.6293
Inclination53.0008
Eccentricity0.0002077
Argument of Perigee36.1059
Mean Anonmoly149.6271
Mean Motion15.62784108
Decay Rate-0.00026532
L11 46563U 20070AH 20338.66668981 -.00026532 00000-0 -28448-3 0 9998
L22 46563 53.0008 156.6293 0002077 36.1059 149.6271 15.62784108 1782

Live tracking and technical data element details for STARLINK-1730 (NORAD 46563). STARLINK-1730 can be tracked NOW for your location showing map with azimuth and elevation plus other details from your city location.

Track the satellite on the map from your city or location and see movement details for azimuth, elevation, latitude, longitude, range, height, and movement on the map or in text.







IsCatalogInMostPopularTable: catalog: 46563, numindb: 14
Update: records affected: 1



GetName: 46563 STARLINK-1730

Hit Count: updated at: Sun, 06 Dec 2020 01:10:17 GMT